Flag for Norway Weather past 2 weeks in Stavanger, Norway

Now
45 °F

Passing clouds.


Feels Like: 36 °F
Forecast: 42 / 46 °F
Wind: 24 mph from South

Location: Stavanger / Sola

Current Time: Mar 7, 2015 at 2:16:50 AM

Latest Report: Mar 7, 2015 at 1:20 AM


Visibility: N/A

Pressure: 29.92 "Hg

Humidity: 87%

Dew point: 41 °F

Location of StavangerLocation

Historic Weather in Stavanger — Graph

°F

Stavanger temperature yesterday

Maximum temperature yesterday: 46 °F (at 10:50 AM)
Minimum temperature yesterday: 41 °F (at 6:20 AM)
Average temperature yesterday: 44 °F

Past Weeks' High & Low Weather Summary

 TemperatureHumidityPressure
High46 °F (Feb 25, 1:50 PM)100% (Feb 21, 7:20 PM)30.33 "Hg (Feb 21, 7:20 PM)
Low34 °F (Feb 22, 12:50 AM)53% (Feb 22, 11:20 AM)28.71 "Hg (Feb 23, 6:20 AM)
Average40 °F86%29.51 "Hg
* Reported Feb 20 12:50 AM — Mar 7 12:50 AM, Stavanger, Weather by CustomWeather, © 2015

Note: Actual official high and low records may vary slightly from our data, if they occured in-between our weather recording intervals... More about our weather records

Advertising

Stavanger weather history for previous 24 hours

 ConditionsComfort  
Time TempWeatherWind HumidityBarometerVisibility
12:50 AM
Sat, Mar 7
45 °FPassing clouds.26 mph87%29.92 "HgN/A
12:20 AM45 °FPartly cloudy.25 mph87%29.92 "HgN/A
11:50 PM
Fri, Mar 6
45 °FPartly cloudy.23 mph87%29.95 "HgN/A
11:20 PM45 °FPassing clouds.23 mph87%29.98 "HgN/A
10:50 PM45 °FPartly cloudy.21 mph87%30.01 "HgN/A
10:20 PM45 °FPartly cloudy.20 mph87%30.01 "Hg6 mi
9:50 PM45 °FPartly cloudy.21 mph87%30.04 "HgN/A
9:20 PM45 °FPartly cloudy.21 mph87%30.04 "HgN/A
8:50 PM45 °FPartly cloudy.20 mph87%30.07 "HgN/A
8:20 PM45 °FPartly cloudy.16 mph87%30.07 "HgN/A
7:50 PM45 °FPartly cloudy.17 mph87%30.07 "HgN/A
7:20 PM45 °FPassing clouds.17 mph87%30.09 "HgN/A
6:50 PM45 °FPassing clouds.16 mph93%30.09 "HgN/A
6:20 PM45 °FPassing clouds.16 mph93%30.12 "HgN/A
5:50 PM45 °FPartly sunny.16 mph93%30.12 "HgN/A
5:20 PM45 °FDrizzle. Partly sunny.15 mph93%30.12 "Hg6 mi
4:50 PM45 °FLight rain. Partly sunny.17 mph87%30.12 "HgN/A
4:20 PM45 °FLight rain. Partly sunny.17 mph93%30.12 "Hg3 mi
3:50 PM45 °FDrizzle. Broken clouds.14 mph93%30.15 "Hg4 mi
3:20 PM45 °FLight rain. Broken clouds.14 mph93%30.15 "Hg6 mi
2:50 PM45 °FLight rain. Partly sunny.15 mph93%30.15 "Hg6 mi
2:20 PM46 °FLight rain. Partly sunny.13 mph87%30.18 "HgN/A
1:50 PM46 °FBroken clouds.13 mph87%30.18 "HgN/A
1:20 PM46 °FPartly sunny.14 mph82%30.21 "HgN/A
12:50 PM46 °FBroken clouds.14 mph87%30.21 "HgN/A
12:20 PM46 °FBroken clouds.10 mph87%30.21 "HgN/A
11:50 AM46 °FBroken clouds.9 mph87%30.21 "HgN/A
11:20 AM46 °FBroken clouds.5 mph87%30.21 "HgN/A
10:50 AM46 °FPartly sunny.6 mph87%30.21 "HgN/A
10:20 AM45 °FScattered clouds.5 mph93%30.21 "HgN/A
9:50 AM45 °FScattered clouds.5 mph93%30.21 "HgN/A
9:20 AM45 °FScattered clouds.6 mph93%30.21 "HgN/A
8:50 AM43 °FPassing clouds.8 mph93%30.21 "HgN/A
8:20 AM43 °FPassing clouds.6 mph93%30.21 "HgN/A
7:50 AM43 °FScattered clouds.9 mph93%30.21 "HgN/A
7:20 AM43 °FPassing clouds.10 mph93%30.21 "HgN/A
6:50 AM43 °FPassing clouds.8 mph93%30.21 "HgN/A
6:20 AM41 °FPassing clouds.6 mph100%30.21 "HgN/A
5:50 AM43 °FPartly cloudy.3 mph93%30.21 "HgN/A
4:50 AM43 °FPartly cloudy.7 mph100%30.21 "Hg6 mi
3:50 AM43 °FPartly cloudy.7 mph93%30.18 "Hg6 mi
2:50 AM43 °FPartly cloudy.6 mph100%30.18 "HgN/A
Weather by CustomWeather, © 2015

See weather overviewHow to use our weather pages